Location: Palo Alto
(37.4420°N, 122.1420°W)
Time: 06:38:21
(UTC-07:00)

ISS - All Passes

Search period start: 25 March 2017 00:00
Search period end: 04 April 2017 00:00
Orbit: 399 x 409 km, 51.6° (Epoch: 25 March)

Date Brightness Start Highest point End Pass type
(mag) Time Alt. Az. Time Alt. Az. Time Alt. Az.
25 Mar - 03:59:33 10° NNW 04:02:33 31° NNE 04:05:31 10° E night (unlit)
25 Mar - 05:36:09 10° WNW 05:38:56 25° SW 05:41:41 10° S visible
25 Mar - 20:38:11 10° S 20:40:53 25° SE 20:43:37 10° ENE visible
25 Mar - 22:14:21 10° W 22:17:16 30° NNW 22:20:13 10° NNE visible
26 Mar - 03:07:31 10° NNW 03:09:59 19° NNE 03:12:28 10° ENE night (unlit)
26 Mar - 04:43:26 10° WNW 04:46:39 52° SW 04:49:52 10° SSE night (unlit)
26 Mar - 19:47:18 10° SSE 19:48:42 12° SE 19:50:07 10° ESE visible
26 Mar - 21:21:36 10° WSW 21:24:48 56° NW 21:28:02 10° NE visible
26 Mar - 23:00:33 10° NW 23:01:51 12° NNW 23:03:09 10° N night (unlit)
27 Mar - 02:15:38 10° N 02:17:20 13° NNE 02:19:03 10° NE night (unlit)
27 Mar - 03:51:00 10° NW 03:54:17 73° NE 03:57:35 10° SE night (unlit)
27 Mar - 20:29:11 10° SW 20:32:24 69° SE 20:35:39 10° NE visible
27 Mar - 22:06:58 10° WNW 22:09:10 17° NNW 22:11:22 10° NNE visible
28 Mar - 02:58:44 10° NW 03:01:50 37° NE 03:04:55 10° ESE night (unlit)
28 Mar - 04:35:39 10° W 04:38:07 20° SW 04:40:35 10° S night (unlit)
28 Mar - 19:37:09 10° SSW 19:40:04 31° SE 19:43:01 10° ENE daylight
28 Mar - 21:13:46 10° W 21:16:33 25° NNW 21:19:21 10° NNE visible
29 Mar - 02:06:37 10° NNW 02:09:17 22° NNE 02:11:56 10° E night (unlit)
29 Mar - 03:42:43 10° WNW 03:45:50 40° SW 03:48:56 10° SSE night (unlit)
29 Mar - 18:45:48 10° SSE 18:47:49 16° SE 18:49:51 10° E daylight
29 Mar - 20:20:52 10° WSW 20:24:00 44° NW 20:27:09 10° NE visible
29 Mar - 22:00:21 10° NNW 22:01:09 11° NNW 22:01:57 10° N visible
30 Mar - 01:14:36 10° NNW 01:16:37 15° NNE 01:18:37 10° ENE night (unlit)
30 Mar - 02:50:10 10° NW 02:53:28 87° SW 02:56:45 10° SE night (unlit)
30 Mar - 19:28:17 10° SW 19:31:32 89° SE 19:34:48 10° NE daylight
30 Mar - 21:06:28 10° WNW 21:08:24 15° NNW 21:10:20 10° NNE visible
31 Mar - 00:22:58 10° N 00:23:52 11° NNE 00:24:45 10° NNE night (unlit)
31 Mar - 01:57:48 10° NW 02:01:00 45° NE 02:04:10 10° ESE night (unlit)
31 Mar - 03:35:07 10° W 03:37:11 16° SW 03:39:14 10° SSW night (unlit)
31 Mar - 18:36:05 10° SSW 18:39:08 40° SE 18:42:14 10° ENE daylight
31 Mar - 20:13:06 10° W 20:15:42 22° NNW 20:18:20 10° NNE visible
01 Apr - 01:05:36 10° NNW 01:08:25 26° NNE 01:11:14 10° E night (unlit)
01 Apr - 02:41:56 10° WNW 02:44:54 31° SW 02:47:51 10° SSE night (unlit)
01 Apr - 17:44:24 10° S 17:46:49 19° SE 17:49:15 10° E daylight
01 Apr - 19:20:04 10° WSW 19:23:06 36° NW 19:26:09 10° NE daylight
02 Apr - 00:13:30 10° NNW 00:15:45 17° NNE 00:18:00 10° ENE night (unlit)
02 Apr - 01:49:15 10° NW 01:52:31 68° SW 01:55:46 10° SE night (unlit)
02 Apr - 18:27:20 10° SW 18:30:34 72° NW 18:33:49 10° NE daylight
02 Apr - 20:05:53 10° NW 20:07:31 13° NNW 20:09:09 10° N visible
02 Apr - 23:21:39 10° N 23:22:59 12° NNE 23:24:19 10° NE night (unlit)
03 Apr - 00:56:47 10° NW 01:00:02 57° NE 01:03:16 10° ESE night (unlit)
03 Apr - 02:34:41 10° WSW 02:36:08 12° SW 02:37:34 10° SSW night (unlit)
03 Apr - 17:34:58 10° SSW 17:38:07 52° SE 17:41:18 10° ENE daylight
03 Apr - 19:12:22 10° WNW 19:14:46 19° NNW 19:17:11 10° NNE daylight
